Time,TemperatureF,DewpointF,PressureIn,WindDirection,WindDirectionDegrees,WindSpeedMPH,WindSpeedGustMPH,Humidity,HourlyPrecipIn,Conditions,Clouds,dailyrainin,SoftwareType,DateUTC
2013-01-31 00:03:00,22.3,16.5,29.92,WNW,290,3.5,3.5,78,0.00,RA,,0.00,WeatherDisplay:10.37,2013-01-31 06:03:00,
2013-01-31 00:08:00,22.2,16.7,29.92,WNW,290,3.5,3.5,79,0.00,RA,,0.00,WeatherDisplay:10.37,2013-01-31 06:08:00,
2013-01-31 00:13:00,22.1,16.6,29.92,WNW,290,3.5,3.5,79,0.00,CLR,,0.00,WeatherDisplay:10.37,2013-01-31 06:13:00,
2013-01-31 00:18:00,22.0,16.5,29.92,WNW,290,4.0,4.0,79,0.00,CLR,,0.00,WeatherDisplay:10.37,2013-01-31 06:18:00,
2013-01-31 00:23:00,21.9,16.7,29.92,WNW,290,5.8,5.8,80,0.00,CLR,,0.00,WeatherDisplay:10.37,2013-01-31 06:23:00,
2013-01-31 00:28:00,21.9,16.7,29.92,WNW,288,5.8,5.8,80,0.00,CLR,,0.00,WeatherDisplay:10.37,2013-01-31 06:28:00,
2013-01-31 00:33:00,21.8,16.6,29.92,WNW,288,3.5,3.5,80,0.00,CLR,,0.00,WeatherDisplay:10.37,2013-01-31 06:33:00,
2013-01-31 00:38:00,21.8,16.6,29.92,WNW,288,3.5,3.5,80,0.00,CLR,,0.00,WeatherDisplay:10.37,2013-01-31 06:38:00,
2013-01-31 00:43:00,21.7,16.5,29.92,WNW,289,3.5,3.5,80,0.00,CLR,,0.00,WeatherDisplay:10.37,2013-01-31 06:43:00,
2013-01-31 00:48:00,21.6,16.4,29.92,WNW,288,3.5,3.5,80,0.00,CLR,,0.00,WeatherDisplay:10.37,2013-01-31 06:48:00,
2013-01-31 00:53:00,21.5,16.6,29.92,WNW,289,2.3,2.3,81,0.00,CLR,,0.00,WeatherDisplay:10.37,2013-01-31 06:53:00,
2013-01-31 00:58:00,21.5,16.6,29.92,WNW,289,2.3,2.3,81,0.00,CLR,,0.00,WeatherDisplay:10.37,2013-01-31 06:58:00,
2013-01-31 01:03:00,21.3,16.4,29.92,WNW,288,4.6,4.6,81,0.00,CLR,,0.00,WeatherDisplay:10.37,2013-01-31 07:03:00,
2013-01-31 01:08:00,21.3,16.4,29.92,WNW,289,3.5,3.5,81,0.00,CLR,,0.00,WeatherDisplay:10.37,2013-01-31 07:08:00,
2013-01-31 01:13:00,21.2,16.6,29.92,WNW,289,3.5,3.5,82,0.00,CLR,,0.00,WeatherDisplay:10.37,2013-01-31 07:13:00,
2013-01-31 01:18:00,21.2,16.6,29.92,WNW,289,2.3,2.3,82,0.00,CLR,,0.00,WeatherDisplay:10.37,2013-01-31 07:18:00,
2013-01-31 01:23:00,21.1,16.5,29.92,WNW,289,3.5,3.5,82,0.00,CLR,,0.00,WeatherDisplay:10.37,2013-01-31 07:23:00,
2013-01-31 01:28:00,21.1,16.5,29.92,WNW,289,3.5,3.5,82,0.00,CLR,,0.00,WeatherDisplay:10.37,2013-01-31 07:28:00,
2013-01-31 01:33:00,21.1,16.5,29.92,WNW,289,3.5,3.5,82,0.00,CLR,,0.00,WeatherDisplay:10.37,2013-01-31 07:33:00,
2013-01-31 01:38:00,21.1,16.5,29.92,WNW,288,3.5,3.5,82,0.00,CLR,,0.00,WeatherDisplay:10.37,2013-01-31 07:38:00,
2013-01-31 01:43:00,21.1,16.5,29.92,WNW,289,2.3,2.3,82,0.00,CLR,,0.00,WeatherDisplay:10.37,2013-01-31 07:43:00,
2013-01-31 01:48:00,21.1,16.5,29.92,WNW,289,3.5,3.5,82,0.00,CLR,,0.00,WeatherDisplay:10.37,2013-01-31 07:48:00,
2013-01-31 01:53:00,21.1,16.7,29.92,WNW,289,3.5,3.5,83,0.00,CLR,,0.00,WeatherDisplay:10.37,2013-01-31 07:53:00,
2013-01-31 01:58:00,21.1,16.7,29.93,WNW,288,2.3,2.3,83,0.00,CLR,,0.00,WeatherDisplay:10.37,2013-01-31 07:58:00,
2013-01-31 02:03:00,21.2,16.8,29.93,WNW,288,4.6,4.6,83,0.00,CLR,,0.00,WeatherDisplay:10.37,2013-01-31 08:03:00,
2013-01-31 02:08:00,21.2,16.8,29.93,WNW,289,2.3,2.3,83,0.00,CLR,,0.00,WeatherDisplay:10.37,2013-01-31 08:08:00,
2013-01-31 02:13:00,21.2,16.8,29.92,WNW,289,3.5,3.5,83,0.00,CLR,,0.00,WeatherDisplay:10.37,2013-01-31 08:13:00,
2013-01-31 02:18:00,21.2,16.8,29.93,WNW,289,3.5,3.5,83,0.00,CLR,,0.00,WeatherDisplay:10.37,2013-01-31 08:18:00,
2013-01-31 02:23:00,21.2,16.8,29.93,WNW,289,3.5,3.5,83,0.00,CLR,,0.00,WeatherDisplay:10.37,2013-01-31 08:23:00,
2013-01-31 02:28:00,21.3,16.9,29.93,WNW,289,4.6,4.6,83,0.00,CLR,,0.00,WeatherDisplay:10.37,2013-01-31 08:28:00,
2013-01-31 02:33:00,21.5,17.1,29.92,WNW,288,3.5,3.5,83,0.00,CLR,,0.00,WeatherDisplay:10.37,2013-01-31 08:33:00,
2013-01-31 02:38:00,21.5,17.1,29.92,WNW,288,4.0,4.0,83,0.00,CLR,,0.00,WeatherDisplay:10.37,2013-01-31 08:38:00,
2013-01-31 02:43:00,21.6,17.2,29.92,WNW,288,3.5,3.5,83,0.00,CLR,,0.00,WeatherDisplay:10.37,2013-01-31 08:43:00,
2013-01-31 02:48:00,21.6,17.2,29.92,WNW,288,5.8,5.8,83,0.00,CLR,,0.00,WeatherDisplay:10.37,2013-01-31 08:48:00,
2013-01-31 02:53:00,21.8,17.4,29.92,WNW,288,4.6,4.6,83,0.00,CLR,,0.00,WeatherDisplay:10.37,2013-01-31 08:53:00,
2013-01-31 02:58:00,21.9,17.5,29.93,WNW,284,5.8,5.8,83,0.00,CLR,,0.00,WeatherDisplay:10.37,2013-01-31 08:58:00,
2013-01-31 03:03:00,22.1,17.4,29.93,WNW,284,4.6,4.6,82,0.00,CLR,,0.00,WeatherDisplay:10.37,2013-01-31 09:03:00,
2013-01-31 03:08:00,22.2,17.5,29.93,WNW,283,3.5,3.5,82,0.00,CLR,,0.00,WeatherDisplay:10.37,2013-01-31 09:08:00,
2013-01-31 03:13:00,22.3,17.6,29.93,WNW,283,3.5,3.5,82,0.00,CLR,,0.00,WeatherDisplay:10.37,2013-01-31 09:13:00,
2013-01-31 03:18:00,22.4,17.7,29.93,West,281,4.0,4.0,82,0.00,CLR,,0.00,WeatherDisplay:10.37,2013-01-31 09:18:00,
2013-01-31 03:23:00,22.5,17.8,29.92,West,281,3.5,3.5,82,0.00,CLR,,0.00,WeatherDisplay:10.37,2013-01-31 09:23:00,
2013-01-31 03:28:00,22.6,17.9,29.92,WNW,282,2.3,2.3,82,0.00,CLR,,0.00,WeatherDisplay:10.37,2013-01-31 09:28:00,
2013-01-31 03:33:00,22.7,18.3,29.92,West,281,4.6,4.6,83,0.00,CLR,,0.00,WeatherDisplay:10.37,2013-01-31 09:33:00,
2013-01-31 03:38:00,22.9,18.5,29.92,West,281,4.0,4.0,83,0.00,CLR,,0.00,WeatherDisplay:10.37,2013-01-31 09:38:00,
2013-01-31 03:43:00,23.1,18.7,29.92,West,281,3.5,3.5,83,0.00,CLR,,0.00,WeatherDisplay:10.37,2013-01-31 09:43:00,
2013-01-31 03:48:00,23.2,18.8,29.92,West,281,3.5,3.5,83,0.00,CLR,,0.00,WeatherDisplay:10.37,2013-01-31 09:48:00,
2013-01-31 03:53:00,23.4,19.0,29.92,West,281,3.5,3.5,83,0.00,CLR,,0.00,WeatherDisplay:10.37,2013-01-31 09:53:00,
2013-01-31 03:58:00,23.5,19.1,29.92,West,281,3.0,3.0,83,0.00,CLR,,0.00,WeatherDisplay:10.37,2013-01-31 09:58:00,
2013-01-31 04:03:00,23.6,19.2,29.91,West,281,4.6,4.6,83,0.00,CLR,,0.00,WeatherDisplay:10.37,2013-01-31 10:03:00,
2013-01-31 04:08:00,23.7,19.3,29.91,West,281,3.5,3.5,83,0.00,CLR,,0.00,WeatherDisplay:10.37,2013-01-31 10:08:00,
2013-01-31 04:13:00,23.8,19.4,29.91,West,281,3.5,3.5,83,0.00,CLR,,0.00,WeatherDisplay:10.37,2013-01-31 10:13:00,
2013-01-31 04:18:00,23.9,19.5,29.90,West,281,1.2,0.0,83,0.00,CLR,,0.00,WeatherDisplay:10.37,2013-01-31 10:18:00,
2013-01-31 04:23:00,23.9,19.5,29.90,West,281,2.3,0.0,83,0.00,CLR,,0.00,WeatherDisplay:10.37,2013-01-31 10:23:00,
2013-01-31 04:28:00,24.0,19.6,29.90,West,281,2.3,0.0,83,0.00,CLR,,0.00,WeatherDisplay:10.37,2013-01-31 10:28:00,
2013-01-31 04:33:00,24.0,19.6,29.90,West,281,0.0,0.0,83,0.00,CLR,,0.00,WeatherDisplay:10.37,2013-01-31 10:33:00,
2013-01-31 04:38:00,24.1,19.7,29.90,West,281,0.0,0.0,83,0.00,CLR,,0.00,WeatherDisplay:10.37,2013-01-31 10:38:00,
2013-01-31 04:43:00,24.1,19.7,29.90,West,281,2.3,2.3,83,0.00,CLR,,0.00,WeatherDisplay:10.37,2013-01-31 10:43:00,
2013-01-31 04:48:00,24.2,19.8,29.91,West,281,0.0,0.0,83,0.00,CLR,,0.00,WeatherDisplay:10.37,2013-01-31 10:48:00,
2013-01-31 04:53:00,24.2,19.8,29.91,West,281,1.2,0.0,83,0.00,CLR,,0.00,WeatherDisplay:10.37,2013-01-31 10:53:00,
2013-01-31 04:58:00,24.2,19.8,29.91,West,281,0.0,0.0,83,0.00,CLR,,0.00,WeatherDisplay:10.37,2013-01-31 10:58:00,
2013-01-31 05:03:00,24.2,19.8,29.91,West,281,1.2,0.0,83,0.00,CLR,,0.00,WeatherDisplay:10.37,2013-01-31 11:03:00,
2013-01-31 05:08:00,24.2,19.8,29.91,West,281,2.3,2.3,83,0.00,CLR,,0.00,WeatherDisplay:10.37,2013-01-31 11:08:00,
2013-01-31 05:13:00,24.3,19.9,29.91,West,281,0.0,0.0,83,0.00,CLR,,0.00,WeatherDisplay:10.37,2013-01-31 11:13:00,
2013-01-31 05:18:00,24.3,19.9,29.91,West,281,2.3,2.3,83,0.00,CLR,,0.00,WeatherDisplay:10.37,2013-01-31 11:18:00,
2013-01-31 05:23:00,24.3,19.9,29.91,West,281,1.2,0.0,83,0.00,CLR,,0.00,WeatherDisplay:10.37,2013-01-31 11:23:00,
2013-01-31 05:28:00,24.3,19.9,29.91,West,281,1.2,0.0,83,0.00,CLR,,0.00,WeatherDisplay:10.37,2013-01-31 11:28:00,
2013-01-31 05:33:00,24.3,19.9,29.91,West,281,0.0,0.0,83,0.00,CLR,,0.00,WeatherDisplay:10.37,2013-01-31 11:33:00,
2013-01-31 05:38:00,24.3,19.9,29.91,West,281,0.0,0.0,83,0.00,CLR,,0.00,WeatherDisplay:10.37,2013-01-31 11:38:00,
2013-01-31 05:43:00,24.3,19.9,29.92,West,281,1.0,0.0,83,0.00,CLR,,0.00,WeatherDisplay:10.37,2013-01-31 11:43:00,
2013-01-31 05:48:00,24.3,19.9,29.92,West,281,0.0,0.1,83,0.00,CLR,,0.00,WeatherDisplay:10.37,2013-01-31 11:48:00,
2013-01-31 05:53:00,24.3,19.9,29.92,West,281,0.0,0.0,83,0.00,CLR,,0.00,WeatherDisplay:10.37,2013-01-31 11:53:00,
2013-01-31 05:58:00,24.2,19.8,29.93,West,281,3.5,3.5,83,0.00,CLR,,0.00,WeatherDisplay:10.37,2013-01-31 11:58:00,
2013-01-31 06:03:00,24.1,19.7,29.93,WNW,283,5.0,5.0,83,0.00,CLR,,0.00,WeatherDisplay:10.37,2013-01-31 12:03:00,
2013-01-31 06:08:00,23.8,19.4,29.93,WNW,284,4.0,4.0,83,0.00,CLR,,0.00,WeatherDisplay:10.37,2013-01-31 12:08:00,
2013-01-31 06:13:00,23.6,19.2,29.94,WNW,287,7.0,7.0,83,0.00,CLR,,0.00,WeatherDisplay:10.37,2013-01-31 12:13:00,
2013-01-31 06:19:00,23.5,19.4,29.94,WNW,287,1.2,1.2,84,0.00,CLR,,0.00,WeatherDisplay:10.37,2013-01-31 12:19:00,
2013-01-31 06:24:00,23.3,19.2,29.95,WNW,287,2.3,2.3,84,0.00,CLR,,0.00,WeatherDisplay:10.37,2013-01-31 12:24:00,
2013-01-31 06:29:00,23.1,19.0,29.94,WNW,292,2.3,2.3,84,0.00,CLR,,0.00,WeatherDisplay:10.37,2013-01-31 12:29:00,
2013-01-31 06:34:00,22.9,18.8,29.95,WNW,293,3.5,3.5,84,0.00,CLR,,0.00,WeatherDisplay:10.37,2013-01-31 12:34:00,
2013-01-31 06:39:00,22.7,18.6,29.96,WNW,295,5.8,5.8,84,0.00,CLR,,0.00,WeatherDisplay:10.37,2013-01-31 12:39:00,
2013-01-31 06:44:00,22.6,18.2,29.96,WNW,295,3.5,3.5,83,0.00,CLR,,0.00,WeatherDisplay:10.37,2013-01-31 12:44:00,
2013-01-31 06:49:00,22.5,18.1,29.96,WNW,295,2.0,2.0,83,0.00,CLR,,0.00,WeatherDisplay:10.37,2013-01-31 12:49:00,
2013-01-31 06:54:00,22.5,18.1,29.97,WNW,295,2.3,2.3,83,0.00,CLR,,0.00,WeatherDisplay:10.37,2013-01-31 12:54:00,
2013-01-31 06:59:00,22.4,18.0,29.97,WNW,295,2.0,2.0,83,0.00,CLR,,0.00,WeatherDisplay:10.37,2013-01-31 12:59:00,
2013-01-31 07:04:00,22.4,18.0,29.98,WNW,295,1.2,1.2,83,0.00,CLR,,0.00,WeatherDisplay:10.37,2013-01-31 13:04:00,
2013-01-31 07:09:00,22.4,18.0,29.99,WNW,295,5.0,5.0,83,0.00,CLR,,0.00,WeatherDisplay:10.37,2013-01-31 13:09:00,
2013-01-31 07:14:00,22.4,18.3,29.99,WNW,295,4.0,4.0,84,0.00,CLR,,0.00,WeatherDisplay:10.37,2013-01-31 13:14:00,
2013-01-31 07:19:00,22.4,18.0,29.99,WNW,295,3.5,3.5,83,0.00,CLR,,0.00,WeatherDisplay:10.37,2013-01-31 13:19:00,
2013-01-31 07:24:00,22.3,17.9,29.99,WNW,300,4.6,4.6,83,0.00,CLR,,0.00,WeatherDisplay:10.37,2013-01-31 13:24:00,
2013-01-31 07:29:00,22.2,17.5,30.00,NW,305,10.4,10.4,82,0.00,CLR,,0.00,WeatherDisplay:10.37,2013-01-31 13:29:00,
2013-01-31 07:34:00,22.0,17.3,30.00,NW,316,8.1,8.1,82,0.00,CLR,,0.00,WeatherDisplay:10.37,2013-01-31 13:34:00,
2013-01-31 07:39:00,21.8,16.9,30.01,NNW,327,10.4,10.4,81,0.00,CLR,,0.00,WeatherDisplay:10.37,2013-01-31 13:39:00,
2013-01-31 07:44:00,21.6,16.4,30.01,NNW,336,5.8,5.8,80,0.00,CLR,,0.00,WeatherDisplay:10.37,2013-01-31 13:44:00,
2013-01-31 07:49:00,21.3,16.1,30.01,NNW,340,11.5,11.5,80,0.00,CLR,,0.00,WeatherDisplay:10.37,2013-01-31 13:49:00,
2013-01-31 07:54:00,21.3,16.1,30.01,NNW,340,10.4,10.4,80,0.00,CLR,,0.00,WeatherDisplay:10.37,2013-01-31 13:54:00,
2013-01-31 07:59:00,21.2,15.7,30.02,NNW,340,6.9,6.9,79,0.00,CLR,,0.00,WeatherDisplay:10.37,2013-01-31 13:59:00,
2013-01-31 08:04:00,21.3,15.8,30.02,NNW,343,3.5,3.5,79,0.00,CLR,,0.00,WeatherDisplay:10.37,2013-01-31 14:04:00,
2013-01-31 08:09:00,21.4,15.6,30.02,NNW,343,3.5,3.5,78,0.00,CLR,,0.00,WeatherDisplay:10.37,2013-01-31 14:09:00,
2013-01-31 08:14:00,21.5,15.4,30.02,NNW,340,11.5,11.5,77,0.00,CLR,,0.00,WeatherDisplay:10.37,2013-01-31 14:14:00,
2013-01-31 08:19:00,21.6,15.2,30.02,NW,325,5.0,5.0,76,0.00,CLR,,0.00,WeatherDisplay:10.37,2013-01-31 14:19:00,
2013-01-31 08:24:00,21.6,15.2,30.02,NW,325,3.5,3.5,76,0.00,CLR,,0.00,WeatherDisplay:10.37,2013-01-31 14:24:00,
2013-01-31 08:29:00,21.7,15.3,30.03,NW,326,2.3,2.3,76,0.00,CLR,,0.00,WeatherDisplay:10.37,2013-01-31 14:29:00,
2013-01-31 08:34:00,21.9,15.2,30.03,NW,326,1.2,1.2,75,0.00,CLR,,0.00,WeatherDisplay:10.37,2013-01-31 14:34:00,
2013-01-31 08:39:00,22.2,15.5,30.03,NNW,329,2.3,2.3,75,0.00,CLR,,0.00,WeatherDisplay:10.37,2013-01-31 14:39:00,
2013-01-31 08:44:00,22.4,15.4,30.04,NNW,329,3.5,3.5,74,0.00,CLR,,0.00,WeatherDisplay:10.37,2013-01-31 14:44:00,
2013-01-31 08:49:00,22.7,15.7,30.04,NNW,329,3.5,3.5,74,0.00,CLR,,0.00,WeatherDisplay:10.37,2013-01-31 14:49:00,
2013-01-31 08:54:00,22.7,15.3,30.05,NW,309,6.9,6.9,73,0.00,CLR,,0.00,WeatherDisplay:10.37,2013-01-31 14:54:00,
2013-01-31 08:59:00,22.6,15.2,30.05,NW,307,2.3,2.3,73,0.00,CLR,,0.00,WeatherDisplay:10.37,2013-01-31 14:59:00,
2013-01-31 09:04:00,22.5,14.8,30.06,NNW,338,11.5,11.5,72,0.00,CLR,,0.00,WeatherDisplay:10.37,2013-01-31 15:04:00,
2013-01-31 09:09:00,22.2,14.5,30.06,NW,306,5.8,5.8,72,0.00,CLR,,0.00,WeatherDisplay:10.37,2013-01-31 15:09:00,
2013-01-31 09:14:00,22.1,14.4,30.06,NNW,333,11.5,11.5,72,0.00,CLR,,0.00,WeatherDisplay:10.37,2013-01-31 15:14:00,
2013-01-31 09:19:00,21.8,13.8,30.06,North,5,11.5,11.5,71,0.00,CLR,,0.00,WeatherDisplay:10.37,2013-01-31 15:19:00,
2013-01-31 09:24:00,21.5,13.5,30.07,NNW,327,6.9,6.9,71,0.00,CLR,,0.00,WeatherDisplay:10.37,2013-01-31 15:24:00,
2013-01-31 09:29:00,21.5,14.2,30.07,WNW,286,12.0,12.0,73,0.00,CLR,,0.00,WeatherDisplay:10.37,2013-01-31 15:29:00,
2013-01-31 09:34:00,21.6,14.3,30.07,NW,315,4.6,4.6,73,0.00,CLR,,0.00,WeatherDisplay:10.37,2013-01-31 15:34:00,
2013-01-31 09:39:00,21.8,14.2,30.07,NNW,344,11.5,11.5,72,0.00,CLR,,0.00,WeatherDisplay:10.37,2013-01-31 15:39:00,
2013-01-31 09:44:00,21.6,13.6,30.07,NNW,340,10.4,10.4,71,0.00,CLR,,0.00,WeatherDisplay:10.37,2013-01-31 15:44:00,
2013-01-31 09:49:00,21.7,13.7,30.07,NNW,342,11.5,11.5,71,0.00,CLR,,0.00,WeatherDisplay:10.37,2013-01-31 15:49:00,
2013-01-31 09:54:00,21.5,13.2,30.08,North,5,5.8,5.8,70,0.00,CLR,,0.00,WeatherDisplay:10.37,2013-01-31 15:54:00,
2013-01-31 09:59:00,21.6,13.6,30.08,NW,316,6.9,6.9,71,0.00,CLR,,0.00,WeatherDisplay:10.37,2013-01-31 15:59:00,
2013-01-31 10:04:00,21.7,12.8,30.09,NNW,342,11.5,11.5,68,0.00,CLR,,0.00,WeatherDisplay:10.37,2013-01-31 16:04:00,
2013-01-31 10:09:00,21.1,11.5,30.10,NNE,14,3.5,3.5,66,0.00,CLR,,0.00,WeatherDisplay:10.37,2013-01-31 16:09:00,
2013-01-31 10:14:00,21.3,12.0,30.11,WNW,285,6.9,6.9,67,0.00,CLR,,0.00,WeatherDisplay:10.37,2013-01-31 16:14:00,
2013-01-31 10:19:00,21.2,11.3,30.11,WNW,302,11.5,11.5,65,0.00,CLR,,0.00,WeatherDisplay:10.37,2013-01-31 16:19:00,
2013-01-31 10:24:00,21.1,10.5,30.11,NNW,343,11.5,11.5,63,0.00,CLR,,0.00,WeatherDisplay:10.37,2013-01-31 16:24:00,
2013-01-31 10:29:00,20.7,9.7,30.11,NW,317,9.0,9.0,62,0.00,CLR,,0.00,WeatherDisplay:10.37,2013-01-31 16:29:00,
2013-01-31 10:34:00,20.6,10.0,30.11,North,5,11.5,11.5,63,0.00,CLR,,0.00,WeatherDisplay:10.37,2013-01-31 16:34:00,
2013-01-31 10:39:00,20.3,9.7,30.11,WNW,295,9.2,9.2,63,0.00,CLR,,0.00,WeatherDisplay:10.37,2013-01-31 16:39:00,
2013-01-31 10:44:00,20.3,10.1,30.11,WNW,299,4.6,4.6,64,0.00,CLR,,0.00,WeatherDisplay:10.37,2013-01-31 16:44:00,
2013-01-31 10:49:00,20.4,9.8,30.12,NW,325,8.1,8.1,63,0.00,CLR,,0.00,WeatherDisplay:10.37,2013-01-31 16:49:00,
2013-01-31 10:54:00,20.7,9.4,30.13,WNW,286,6.9,6.9,61,0.00,CLR,,0.00,WeatherDisplay:10.37,2013-01-31 16:54:00,
2013-01-31 10:59:00,20.3,8.2,30.14,WNW,303,10.4,10.4,59,0.00,CLR,,0.00,WeatherDisplay:10.37,2013-01-31 16:59:00,
2013-01-31 11:04:00,20.1,8.4,30.14,NW,317,9.2,9.2,60,0.00,CLR,,0.00,WeatherDisplay:10.37,2013-01-31 17:04:00,
2013-01-31 11:09:00,20.2,8.9,30.14,WNW,294,9.2,9.2,61,0.00,CLR,,0.00,WeatherDisplay:10.37,2013-01-31 17:09:00,
2013-01-31 11:14:00,20.5,8.8,30.14,North,349,10.4,10.4,60,0.00,CLR,,0.00,WeatherDisplay:10.37,2013-01-31 17:14:00,
2013-01-31 11:19:00,20.2,8.9,30.15,NW,309,10.4,10.4,61,0.00,CLR,,0.00,WeatherDisplay:10.37,2013-01-31 17:19:00,
2013-01-31 11:24:00,20.2,8.1,30.15,North,360,11.5,11.5,59,0.00,CLR,,0.00,WeatherDisplay:10.37,2013-01-31 17:24:00,
2013-01-31 11:29:00,19.7,7.7,30.16,WNW,300,15.0,15.0,59,0.00,CLR,,0.00,WeatherDisplay:10.37,2013-01-31 17:29:00,
2013-01-31 11:34:00,19.3,8.0,30.16,NW,318,11.5,11.5,61,0.00,CLR,,0.00,WeatherDisplay:10.37,2013-01-31 17:34:00,
2013-01-31 11:39:00,19.1,8.2,30.16,NW,323,12.7,12.7,62,0.00,CLR,,0.00,WeatherDisplay:10.37,2013-01-31 17:39:00,
2013-01-31 11:44:00,19.1,8.9,30.17,North,355,13.8,13.8,64,0.00,CLR,,0.00,WeatherDisplay:10.37,2013-01-31 17:44:00,
2013-01-31 11:49:00,18.9,8.0,30.17,NW,304,12.7,12.7,62,0.00,CLR,,0.00,WeatherDisplay:10.37,2013-01-31 17:49:00,
2013-01-31 11:54:00,19.1,8.6,30.17,NW,317,10.0,10.0,63,0.00,CLR,,0.00,WeatherDisplay:10.37,2013-01-31 17:54:00,
2013-01-31 11:59:00,19.4,8.8,30.17,NNW,340,10.0,10.0,63,0.00,CLR,,0.00,WeatherDisplay:10.37,2013-01-31 17:59:00,
2013-01-31 12:04:00,19.5,8.6,30.17,NW,309,12.7,12.7,62,0.00,CLR,,0.00,WeatherDisplay:10.37,2013-01-31 18:04:00,
2013-01-31 12:09:00,19.7,8.8,30.17,North,355,11.5,11.5,62,0.00,CLR,,0.00,WeatherDisplay:10.37,2013-01-31 18:09:00,
2013-01-31 12:14:00,19.6,8.3,30.17,WNW,296,13.8,13.8,61,0.00,CLR,,0.00,WeatherDisplay:10.37,2013-01-31 18:14:00,
2013-01-31 12:19:00,19.7,8.8,30.18,WNW,299,6.9,6.9,62,0.00,CLR,,0.00,WeatherDisplay:10.37,2013-01-31 18:19:00,
2013-01-31 12:24:00,19.9,9.3,30.18,WNW,290,5.0,5.2,63,0.00,CLR,,0.00,WeatherDisplay:10.37,2013-01-31 18:24:00,
2013-01-31 12:29:00,19.5,7.9,30.17,North,360,15.0,15.0,60,0.00,CLR,,0.00,WeatherDisplay:10.37,2013-01-31 18:29:00,
2013-01-31 12:34:00,19.4,8.5,30.18,NW,317,9.2,9.2,62,0.00,CLR,,0.00,WeatherDisplay:10.37,2013-01-31 18:34:00,
2013-01-31 12:39:00,19.6,8.3,30.18,NW,304,13.8,13.8,61,0.00,CLR,,0.00,WeatherDisplay:10.37,2013-01-31 18:39:00,
2013-01-31 12:44:00,19.7,8.8,30.18,WNW,294,10.4,10.4,62,0.00,CLR,,0.00,WeatherDisplay:10.37,2013-01-31 18:44:00,
2013-01-31 12:49:00,19.9,9.0,30.19,NW,310,10.4,10.4,62,0.00,CLR,,0.00,WeatherDisplay:10.37,2013-01-31 18:49:00,
2013-01-31 12:55:00,20.2,9.2,30.19,NW,309,13.0,13.0,62,0.00,CLR,,0.00,WeatherDisplay:10.37,2013-01-31 18:55:00,
2013-01-31 13:00:00,20.5,9.5,30.19,NNW,336,23.0,23.0,62,0.00,CLR,,0.00,WeatherDisplay:10.37,2013-01-31 19:00:00,
2013-01-31 13:05:00,20.4,8.7,30.19,North,360,16.1,16.1,60,0.00,CLR,,0.00,WeatherDisplay:10.37,2013-01-31 19:05:00,
2013-01-31 13:10:00,20.6,9.6,30.19,North,5,12.0,12.0,62,0.00,CLR,,0.00,WeatherDisplay:10.37,2013-01-31 19:10:00,
2013-01-31 13:15:00,20.6,9.3,30.19,NNW,334,12.7,12.7,61,0.00,CLR,,0.00,WeatherDisplay:10.37,2013-01-31 19:15:00,
2013-01-31 13:20:00,20.3,9.3,30.19,NNW,348,8.1,8.1,62,0.00,CLR,,0.00,WeatherDisplay:10.37,2013-01-31 19:20:00,
2013-01-31 13:25:00,20.3,9.3,30.20,WNW,294,19.0,19.0,62,0.00,CLR,,0.00,WeatherDisplay:10.37,2013-01-31 19:25:00,
2013-01-31 13:30:00,20.0,8.7,30.20,NW,325,16.1,16.1,61,0.00,CLR,,0.00,WeatherDisplay:10.37,2013-01-31 19:30:00,
2013-01-31 13:35:00,20.0,9.4,30.20,NW,315,13.8,13.8,63,0.00,CLR,,0.00,WeatherDisplay:10.37,2013-01-31 19:35:00,
2013-01-31 13:40:00,20.1,9.5,30.20,NNW,344,11.5,11.5,63,0.00,CLR,,0.00,WeatherDisplay:10.37,2013-01-31 19:40:00,
2013-01-31 13:45:00,20.2,9.2,30.20,WNW,285,12.7,12.7,62,0.00,CLR,,0.00,WeatherDisplay:10.37,2013-01-31 19:45:00,
2013-01-31 13:50:00,20.3,9.3,30.20,WNW,300,11.5,11.5,62,0.00,CLR,,0.00,WeatherDisplay:10.37,2013-01-31 19:50:00,
2013-01-31 13:55:00,20.4,9.1,30.20,West,279,17.3,17.3,61,0.00,CLR,,0.00,WeatherDisplay:10.37,2013-01-31 19:55:00,
2013-01-31 14:00:00,20.4,8.7,30.20,WSW,254,17.3,17.3,60,0.00,CLR,,0.00,WeatherDisplay:10.37,2013-01-31 20:00:00,
2013-01-31 14:05:00,20.3,8.6,30.20,West,281,11.5,11.5,60,0.00,CLR,,0.00,WeatherDisplay:10.37,2013-01-31 20:05:00,
2013-01-31 14:10:00,20.7,9.0,30.20,West,275,16.1,16.1,60,0.00,CLR,,0.00,WeatherDisplay:10.37,2013-01-31 20:10:00,
2013-01-31 14:15:00,20.8,9.1,30.21,NW,304,12.7,12.7,60,0.00,CLR,,0.00,WeatherDisplay:10.37,2013-01-31 20:15:00,
2013-01-31 14:20:00,21.0,9.3,30.20,NNE,21,13.8,13.8,60,0.00,CLR,,0.00,WeatherDisplay:10.37,2013-01-31 20:20:00,
2013-01-31 14:25:00,20.0,7.6,30.21,North,350,19.6,19.6,58,0.00,CLR,,0.00,WeatherDisplay:10.37,2013-01-31 20:25:00,
2013-01-31 14:30:00,19.7,8.0,30.22,WNW,292,10.4,10.4,60,0.00,CLR,,0.00,WeatherDisplay:10.37,2013-01-31 20:30:00,
2013-01-31 14:35:00,19.7,8.0,30.22,North,360,10.0,10.0,60,0.00,CLR,,0.00,WeatherDisplay:10.37,2013-01-31 20:35:00,
2013-01-31 14:40:00,19.5,7.5,30.22,West,263,16.1,16.1,59,0.00,CLR,,0.00,WeatherDisplay:10.37,2013-01-31 20:40:00,
2013-01-31 14:45:00,19.1,7.1,30.23,NNW,348,14.0,14.0,59,0.00,CLR,,0.00,WeatherDisplay:10.37,2013-01-31 20:45:00,
2013-01-31 14:50:00,18.4,6.1,30.23,WNW,288,13.8,13.8,58,0.00,CLR,,0.00,WeatherDisplay:10.37,2013-01-31 20:50:00,
2013-01-31 14:55:00,17.8,5.5,30.23,North,355,11.5,11.5,58,0.00,CLR,,0.00,WeatherDisplay:10.37,2013-01-31 20:55:00,
2013-01-31 15:00:00,17.5,6.0,30.24,WNW,287,4.6,4.6,60,0.00,CLR,,0.00,WeatherDisplay:10.37,2013-01-31 21:00:00,
2013-01-31 15:05:00,17.3,5.0,30.24,NW,310,11.5,11.5,58,0.00,CLR,,0.00,WeatherDisplay:10.37,2013-01-31 21:05:00,
2013-01-31 15:10:00,17.2,5.3,30.24,West,276,11.5,11.5,59,0.00,CLR,,0.00,WeatherDisplay:10.37,2013-01-31 21:10:00,
2013-01-31 15:15:00,16.9,5.8,30.24,North,349,10.0,10.0,61,0.00,CLR,,0.00,WeatherDisplay:10.37,2013-01-31 21:15:00,
2013-01-31 15:20:00,16.1,5.0,30.25,NW,309,11.5,11.5,61,0.00,CLR,,0.00,WeatherDisplay:10.37,2013-01-31 21:20:00,
2013-01-31 15:25:00,15.5,5.5,30.25,NNW,327,17.3,17.3,64,0.00,CLR,,0.00,WeatherDisplay:10.37,2013-01-31 21:25:00,
2013-01-31 15:30:00,15.0,5.3,30.26,WNW,291,13.8,13.8,65,0.00,CLR,,0.00,WeatherDisplay:10.37,2013-01-31 21:30:00,
2013-01-31 15:35:00,14.3,5.0,30.26,NNW,348,12.7,12.7,66,0.00,CLR,,0.00,WeatherDisplay:10.37,2013-01-31 21:35:00,
2013-01-31 15:40:00,13.8,4.5,30.27,NW,308,10.4,10.4,66,0.00,CLR,,0.00,WeatherDisplay:10.37,2013-01-31 21:40:00,
2013-01-31 15:45:00,13.9,5.0,30.27,NW,309,6.0,6.0,67,0.00,CLR,,0.00,WeatherDisplay:10.37,2013-01-31 21:45:00,
2013-01-31 15:50:00,14.0,4.7,30.27,West,261,11.5,11.5,66,0.00,CLR,,0.00,WeatherDisplay:10.37,2013-01-31 21:50:00,
2013-01-31 15:55:00,14.1,4.8,30.27,WNW,301,5.0,14.0,66,0.00,CLR,,0.00,WeatherDisplay:10.37,2013-01-31 21:55:00,
2013-01-31 16:00:00,14.2,4.6,30.27,NW,313,11.5,11.5,65,0.00,CLR,,0.00,WeatherDisplay:10.37,2013-01-31 22:00:00,
2013-01-31 16:05:00,14.3,4.3,30.27,NW,315,7.0,14.0,64,0.00,CLR,,0.00,WeatherDisplay:10.37,2013-01-31 22:05:00,
2013-01-31 16:10:00,14.3,4.3,30.28,NW,319,5.0,10.0,64,0.00,CLR,,0.00,WeatherDisplay:10.37,2013-01-31 22:10:00,
2013-01-31 16:15:00,14.3,4.3,30.28,NNW,341,9.2,9.2,64,0.00,CLR,,0.00,WeatherDisplay:10.37,2013-01-31 22:15:00,
2013-01-31 16:20:00,14.5,4.9,30.28,NW,304,11.5,11.5,65,0.00,CLR,,0.00,WeatherDisplay:10.37,2013-01-31 22:20:00,
2013-01-31 16:25:00,14.8,5.2,30.28,WNW,294,11.5,11.5,65,0.00,CLR,,0.00,WeatherDisplay:10.37,2013-01-31 22:25:00,
2013-01-31 16:30:00,14.9,4.9,30.28,WNW,302,9.2,9.2,64,0.00,CLR,,0.00,WeatherDisplay:10.37,2013-01-31 22:30:00,
2013-01-31 16:35:00,14.8,4.8,30.28,WNW,296,13.8,13.8,64,0.00,CLR,,0.00,WeatherDisplay:10.37,2013-01-31 22:35:00,
2013-01-31 16:40:00,14.8,4.8,30.28,NW,309,11.5,11.5,64,0.00,CLR,,0.00,WeatherDisplay:10.37,2013-01-31 22:40:00,
2013-01-31 16:45:00,14.8,4.5,30.28,WNW,290,12.7,12.7,63,0.00,CLR,,0.00,WeatherDisplay:10.37,2013-01-31 22:45:00,
2013-01-31 16:50:00,14.8,4.5,30.29,West,281,5.0,5.0,63,0.00,CLR,,0.00,WeatherDisplay:10.37,2013-01-31 22:50:00,
2013-01-31 16:55:00,14.8,4.5,30.29,NNW,346,9.2,9.2,63,0.00,CLR,,0.00,WeatherDisplay:10.37,2013-01-31 22:55:00,
2013-01-31 17:00:00,14.8,4.5,30.29,NNW,338,11.5,11.5,63,0.00,CLR,,0.00,WeatherDisplay:10.37,2013-01-31 23:00:00,
2013-01-31 17:05:00,14.8,4.1,30.29,WNW,296,6.9,6.9,62,0.00,CLR,,0.00,WeatherDisplay:10.37,2013-01-31 23:05:00,
2013-01-31 17:10:00,14.8,4.5,30.29,NW,315,5.8,5.8,63,0.00,CLR,,0.00,WeatherDisplay:10.37,2013-01-31 23:10:00,
2013-01-31 17:15:00,14.6,3.9,30.29,WNW,284,3.5,3.5,62,0.00,CLR,,0.00,WeatherDisplay:10.37,2013-01-31 23:15:00,
2013-01-31 17:20:00,14.3,4.0,30.29,NW,323,16.1,16.1,63,0.00,CLR,,0.00,WeatherDisplay:10.37,2013-01-31 23:20:00,
2013-01-31 17:25:00,14.1,3.8,30.29,WNW,297,10.4,10.4,63,0.00,CLR,,0.00,WeatherDisplay:10.37,2013-01-31 23:25:00,
2013-01-31 17:30:00,13.8,3.5,30.29,NW,315,15.0,15.0,63,0.00,CLR,,0.00,WeatherDisplay:10.37,2013-01-31 23:30:00,
2013-01-31 17:35:00,13.6,3.3,30.30,NW,308,8.1,8.1,63,0.00,CLR,,0.00,WeatherDisplay:10.37,2013-01-31 23:35:00,
2013-01-31 17:40:00,13.4,3.5,30.30,North,355,8.0,8.0,64,0.00,CLR,,0.00,WeatherDisplay:10.37,2013-01-31 23:40:00,
2013-01-31 17:45:00,13.2,3.3,30.30,North,355,11.5,11.5,64,0.00,CLR,,0.00,WeatherDisplay:10.37,2013-01-31 23:45:00,
2013-01-31 17:50:00,13.1,3.2,30.31,North,360,10.0,10.0,64,0.00,CLR,,0.00,WeatherDisplay:10.37,2013-01-31 23:50:00,
2013-01-31 17:55:00,13.0,3.1,30.31,NNW,331,10.4,10.4,64,0.00,CLR,,0.00,WeatherDisplay:10.37,2013-01-31 23:55:00,
2013-01-31 18:00:00,12.9,3.0,30.31,NW,317,4.0,4.0,64,0.00,CLR,,0.00,WeatherDisplay:10.37,2013-02-01 00:00:00,
2013-01-31 18:05:00,12.8,3.2,30.32,NW,315,6.9,6.9,65,0.00,CLR,,0.00,WeatherDisplay:10.37,2013-02-01 00:05:00,
2013-01-31 18:10:00,12.7,2.8,30.32,NNW,348,11.5,11.5,64,0.00,CLR,,0.00,WeatherDisplay:10.37,2013-02-01 00:10:00,
2013-01-31 18:15:00,12.6,2.7,30.33,NW,317,4.6,4.6,64,0.00,CLR,,0.00,WeatherDisplay:10.37,2013-02-01 00:15:00,
2013-01-31 18:20:00,12.5,2.6,30.33,North,360,18.4,18.4,64,0.00,CLR,,0.00,WeatherDisplay:10.37,2013-02-01 00:20:00,
2013-01-31 18:25:00,12.3,2.4,30.33,NW,316,9.0,9.0,64,0.00,CLR,,0.00,WeatherDisplay:10.37,2013-02-01 00:25:00,
2013-01-31 18:30:00,12.2,2.3,30.34,NW,326,9.2,9.2,64,0.00,CLR,,0.00,WeatherDisplay:10.37,2013-02-01 00:30:00,
2013-01-31 18:35:00,12.1,2.2,30.34,NNW,331,4.6,4.6,64,0.00,CLR,,0.00,WeatherDisplay:10.37,2013-02-01 00:35:00,
2013-01-31 18:40:00,12.1,2.6,30.34,NW,313,8.1,8.1,65,0.00,CLR,,0.00,WeatherDisplay:10.37,2013-02-01 00:40:00,
2013-01-31 18:45:00,12.0,2.5,30.35,WNW,294,10.4,10.4,65,0.00,CLR,,0.00,WeatherDisplay:10.37,2013-02-01 00:45:00,
2013-01-31 18:50:00,11.9,2.4,30.35,WNW,296,6.9,6.9,65,0.00,CLR,,0.00,WeatherDisplay:10.37,2013-02-01 00:50:00,
2013-01-31 18:55:00,11.8,2.3,30.35,NW,308,9.2,9.2,65,0.00,CLR,,0.00,WeatherDisplay:10.37,2013-02-01 00:55:00,
2013-01-31 19:00:00,11.7,2.5,30.35,WNW,302,4.6,4.6,66,0.00,CLR,,0.00,WeatherDisplay:10.37,2013-02-01 01:00:00,
2013-01-31 19:05:00,11.7,2.5,30.36,WNW,297,3.5,3.5,66,0.00,CLR,,0.00,WeatherDisplay:10.37,2013-02-01 01:05:00,
2013-01-31 19:10:00,11.6,2.4,30.36,WNW,301,6.0,6.0,66,0.00,CLR,,0.00,WeatherDisplay:10.37,2013-02-01 01:10:00,
2013-01-31 19:15:00,11.5,2.3,30.36,WNW,301,5.8,5.8,66,0.00,CLR,,0.00,WeatherDisplay:10.37,2013-02-01 01:15:00,
2013-01-31 19:20:00,11.4,2.2,30.36,WNW,301,3.0,3.0,66,0.00,CLR,,0.00,WeatherDisplay:10.37,2013-02-01 01:20:00,
2013-01-31 19:25:00,11.4,2.2,30.37,NW,306,9.0,9.0,66,0.00,CLR,,0.00,WeatherDisplay:10.37,2013-02-01 01:25:00,
2013-01-31 19:30:00,11.3,2.5,30.37,NW,305,5.8,5.8,67,0.00,CLR,,0.00,WeatherDisplay:10.37,2013-02-01 01:30:00,
2013-01-31 19:35:00,11.3,2.5,30.37,NW,304,6.0,6.0,67,0.00,CLR,,0.00,WeatherDisplay:10.37,2013-02-01 01:35:00,
2013-01-31 19:40:00,11.2,2.4,30.37,NW,306,5.8,5.8,67,0.00,CLR,,0.00,WeatherDisplay:10.37,2013-02-01 01:40:00,
2013-01-31 19:45:00,11.2,2.4,30.37,NW,306,2.3,2.3,67,0.00,CLR,,0.00,WeatherDisplay:10.37,2013-02-01 01:45:00,
2013-01-31 19:50:00,11.0,2.2,30.37,NW,306,6.9,6.9,67,0.00,CLR,,0.00,WeatherDisplay:10.37,2013-02-01 01:50:00,
2013-01-31 19:55:00,11.0,2.2,30.37,NW,306,5.8,5.8,67,0.00,CLR,,0.00,WeatherDisplay:10.37,2013-02-01 01:55:00,
2013-01-31 20:00:00,10.9,2.1,30.37,NW,314,9.2,9.2,67,0.00,CLR,,0.00,WeatherDisplay:10.37,2013-02-01 02:00:00,
2013-01-31 20:05:00,10.9,2.1,30.37,NW,313,5.8,5.8,67,0.00,CLR,,0.00,WeatherDisplay:10.37,2013-02-01 02:05:00,
2013-01-31 20:10:00,10.8,2.0,30.37,NW,315,3.5,3.5,67,0.00,CLR,,0.00,WeatherDisplay:10.37,2013-02-01 02:10:00,
2013-01-31 20:15:00,10.8,2.0,30.38,NW,315,3.5,3.5,67,0.00,CLR,,0.00,WeatherDisplay:10.37,2013-02-01 02:15:00,
2013-01-31 20:20:00,10.7,1.9,30.38,NW,314,2.3,2.3,67,0.00,CLR,,0.00,WeatherDisplay:10.37,2013-02-01 02:20:00,
2013-01-31 20:25:00,10.6,1.8,30.39,NW,314,1.2,1.2,67,0.00,CLR,,0.00,WeatherDisplay:10.37,2013-02-01 02:25:00,
2013-01-31 20:30:00,10.5,2.0,30.40,NW,314,2.3,2.3,68,0.00,CLR,,0.00,WeatherDisplay:10.37,2013-02-01 02:30:00,
2013-01-31 20:35:00,10.5,2.0,30.40,NW,314,4.0,4.0,68,0.00,CLR,,0.00,WeatherDisplay:10.37,2013-02-01 02:35:00,
2013-01-31 20:40:00,10.4,1.9,30.40,NW,314,3.5,3.5,68,0.00,CLR,,0.00,WeatherDisplay:10.37,2013-02-01 02:40:00,
2013-01-31 20:45:00,10.4,1.9,30.40,NW,314,1.2,0.0,68,0.00,CLR,,0.00,WeatherDisplay:10.37,2013-02-01 02:45:00,
2013-01-31 20:50:00,10.3,1.8,30.41,NW,314,2.3,2.3,68,0.00,CLR,,0.00,WeatherDisplay:10.37,2013-02-01 02:50:00,
2013-01-31 20:55:00,10.3,1.8,30.41,NW,314,0.0,0.0,68,0.00,CLR,,0.00,WeatherDisplay:10.37,2013-02-01 02:55:00,
2013-01-31 21:00:00,10.2,1.7,30.41,NW,314,3.5,3.5,68,0.00,CLR,,0.00,WeatherDisplay:10.37,2013-02-01 03:00:00,
2013-01-31 21:05:00,10.0,1.9,30.42,NW,314,0.0,0.1,69,0.00,CLR,,0.00,WeatherDisplay:10.37,2013-02-01 03:05:00,
2013-01-31 21:10:00,9.9,1.8,30.42,NW,314,1.2,1.2,69,0.00,CLR,,0.00,WeatherDisplay:10.37,2013-02-01 03:10:00,
2013-01-31 21:15:00,9.9,1.8,30.42,NW,314,1.2,1.2,69,0.00,CLR,,0.00,WeatherDisplay:10.37,2013-02-01 03:15:00,
2013-01-31 21:20:00,9.9,2.1,30.42,NW,314,1.2,1.2,70,0.00,CLR,,0.00,WeatherDisplay:10.37,2013-02-01 03:20:00,
2013-01-31 21:25:00,9.8,2.0,30.43,NW,314,2.3,2.3,70,0.00,CLR,,0.00,WeatherDisplay:10.37,2013-02-01 03:25:00,
2013-01-31 21:30:00,9.7,1.9,30.43,NW,314,1.2,0.0,70,0.00,CLR,,0.00,WeatherDisplay:10.37,2013-02-01 03:30:00,
2013-01-31 21:35:00,9.6,2.1,30.43,NW,314,1.2,0.0,71,0.00,CLR,,0.00,WeatherDisplay:10.37,2013-02-01 03:35:00,
2013-01-31 21:40:00,9.6,2.1,30.43,NW,314,1.2,1.2,71,0.00,CLR,,0.00,WeatherDisplay:10.37,2013-02-01 03:40:00,
2013-01-31 21:45:00,9.6,2.1,30.44,NW,314,1.2,1.2,71,0.00,CLR,,0.00,WeatherDisplay:10.37,2013-02-01 03:45:00,
2013-01-31 21:50:00,9.5,2.0,30.44,NW,314,1.2,1.2,71,0.00,CLR,,0.00,WeatherDisplay:10.37,2013-02-01 03:50:00,
2013-01-31 21:55:00,9.6,2.1,30.44,NW,314,2.3,2.3,71,0.00,CLR,,0.00,WeatherDisplay:10.37,2013-02-01 03:55:00,
2013-01-31 22:00:00,9.5,2.0,30.44,NW,314,1.2,1.2,71,0.00,CLR,,0.00,WeatherDisplay:10.37,2013-02-01 04:00:00,
2013-01-31 22:06:00,9.5,2.0,30.45,NW,314,0.0,0.2,71,0.00,CLR,,0.00,WeatherDisplay:10.37,2013-02-01 04:06:00,
2013-01-31 22:11:00,9.5,2.0,30.45,NW,314,2.3,2.3,71,0.00,CLR,,0.00,WeatherDisplay:10.37,2013-02-01 04:11:00,
2013-01-31 22:16:00,9.5,2.0,30.45,NW,314,1.2,1.2,71,0.00,CLR,,0.00,WeatherDisplay:10.37,2013-02-01 04:16:00,
2013-01-31 22:21:00,9.4,2.2,30.45,NW,314,0.0,0.0,72,0.00,CLR,,0.00,WeatherDisplay:10.37,2013-02-01 04:21:00,
2013-01-31 22:26:00,9.3,2.1,30.46,NW,314,1.2,0.0,72,0.00,CLR,,0.00,WeatherDisplay:10.37,2013-02-01 04:26:00,
2013-01-31 22:31:00,9.3,2.1,30.46,NW,314,0.0,0.0,72,0.00,CLR,,0.00,WeatherDisplay:10.37,2013-02-01 04:31:00,
2013-01-31 22:36:00,9.2,2.3,30.46,NW,314,0.0,0.0,73,0.00,CLR,,0.00,WeatherDisplay:10.37,2013-02-01 04:36:00,
2013-01-31 22:41:00,9.2,2.3,30.46,NW,314,2.0,2.0,73,0.00,CLR,,0.00,WeatherDisplay:10.37,2013-02-01 04:41:00,
2013-01-31 22:46:00,9.1,2.2,30.45,NW,314,1.2,1.2,73,0.00,CLR,,0.00,WeatherDisplay:10.37,2013-02-01 04:46:00,
2013-01-31 22:51:00,9.2,2.3,30.45,NW,314,1.2,1.2,73,0.00,CLR,,0.00,WeatherDisplay:10.37,2013-02-01 04:51:00,
2013-01-31 22:56:00,9.1,2.2,30.45,NW,314,2.3,2.3,73,0.00,CLR,,0.00,WeatherDisplay:10.37,2013-02-01 04:56:00,
2013-01-31 23:00:00,9.1,2.2,30.45,NW,314,0.0,0.0,73,0.00,CLR,,0.00,WeatherDisplay:10.37,2013-02-01 05:00:00,
2013-01-31 23:01:00,9.1,2.2,30.45,NW,314,1.2,0.0,73,0.00,CLR,,0.00,WeatherDisplay:10.37,2013-02-01 05:01:00,
2013-01-31 23:06:00,9.0,2.1,30.44,NW,314,0.0,0.0,73,0.00,CLR,,0.00,WeatherDisplay:10.37,2013-02-01 05:06:00,
2013-01-31 23:11:00,8.9,2.0,30.44,NW,314,0.0,0.0,73,0.00,CLR,,0.00,WeatherDisplay:10.37,2013-02-01 05:11:00,
2013-01-31 23:16:00,8.9,2.3,30.44,NW,314,0.0,0.0,74,0.00,CLR,,0.00,WeatherDisplay:10.37,2013-02-01 05:16:00,
2013-01-31 23:22:00,8.8,2.2,30.44,NW,314,0.0,0.0,74,0.00,CLR,,0.00,WeatherDisplay:10.37,2013-02-01 05:22:00,
2013-01-31 23:27:00,8.7,2.1,30.44,NW,314,1.2,1.2,74,0.00,CLR,,0.00,WeatherDisplay:10.37,2013-02-01 05:27:00,
2013-01-31 23:32:00,8.7,2.1,30.44,NW,314,3.5,3.5,74,0.00,CLR,,0.00,WeatherDisplay:10.37,2013-02-01 05:32:00,
2013-01-31 23:37:00,8.7,2.1,30.43,NW,314,1.2,1.2,74,0.00,CLR,,0.00,WeatherDisplay:10.37,2013-02-01 05:37:00,
2013-01-31 23:42:00,8.7,2.1,30.43,NW,314,1.2,1.2,74,0.00,CLR,,0.00,WeatherDisplay:10.37,2013-02-01 05:42:00,
2013-01-31 23:47:00,8.7,2.1,30.43,NW,314,2.3,2.3,74,0.00,CLR,,0.00,WeatherDisplay:10.37,2013-02-01 05:47:00,
2013-01-31 23:52:00,8.7,2.1,30.43,NW,314,0.0,0.0,74,0.00,CLR,,0.00,WeatherDisplay:10.37,2013-02-01 05:52:00,
2013-01-31 23:57:00,8.7,2.1,30.44,NW,314,0.0,0.0,74,0.00,CLR,,0.00,WeatherDisplay:10.37,2013-02-01 05:57:00,